Location: Lombard
(41.8800°N, 88.0080°W)
Time: 00:29:19
(UTC-05:00)

A-11 Canister half - Pass Details

Date: 30 January 2023
Orbit: 1512 x 1687 km, 47.2° (Epoch: 20 March)

Event Time Altitude Azimuth Distance (km) Brightness Sun altitude
Rises 18:00:47 0° 296° (WNW) 4,694 12.4 -10.8°
Reaches altitude 10° 18:03:53 10° 294° (WNW) 3,695 11.8 -11.3°
Maximum altitude 18:12:57 61° 217° (SW) 1,679 9.4 -13.0°
Drops below altitude 10° 18:21:58 10° 139° (SE) 3,673 10.7 -14.6°
Sets 18:25:03 0° 136° (SE) 4,664 11.2 -15.2°
